Flag Weather past 2 weeks in Richmond, British Columbia, Canada

Now
45 °F

Light rain. Mostly cloudy.


Feels Like: 39 °F
Forecast: 44 / 46 °F
Wind: 12 mph from East

Location: Vancouver International Air-Port

Current Time: Nov 24, 2014 at 6:02:27 PM

Latest Report: Nov 24, 2014 at 5:00 PM


Visibility: 8 mi

Pressure: 30.11 "Hg

Humidity: 93%

Dew point: 43 °F

Location of RichmondLocation

Historic Weather in Richmond — Graph

°F

Richmond temperature yesterday

Maximum temperature yesterday: 50 °F (at 12:00 PM)
Minimum temperature yesterday: 41 °F (at 8:00 PM)
Average temperature yesterday: 46 °F

Past Weeks' High & Low Weather Summary

 TemperatureHumidityPressure
High50 °F (Nov 9, 4:00 PM)100% (Nov 9, 10:00 PM)30.57 "Hg (Nov 9, 10:00 PM)
Low23 °F (Nov 14, 6:00 AM)25% (Nov 11, 12:00 PM)29.26 "Hg (Nov 21, 7:00 PM)
Average40 °F78%30.12 "Hg
* Reported Nov 9 4:00 PM — Nov 24 4:00 PM, Richmond, Weather by CustomWeather, © 2014

Note: Actual official high and low records may vary slightly from our data, if they occured in-between our weather recording intervals... More about our weather records

Advertising

Richmond weather history for previous 24 hours

 ConditionsComfort  
Time TempWeatherWind HumidityBarometerVisibility
4:00 PM
Nov 24
45 °FLight rain. Mostly cloudy.14 mph93%30.13 "Hg8 mi
3:00 PM45 °FLight rain. Cloudy.12 mph93%30.16 "Hg8 mi
2:00 PM45 °FLight rain. Fog.12 mph93%30.20 "Hg5 mi
1:00 PM46 °FLight rain. More clouds than sun.9 mph82%30.22 "Hg8 mi
12:00 PM46 °FLight rain. Cloudy.14 mph87%30.23 "Hg10 mi
11:00 AM46 °FLight rain. Cloudy.12 mph87%30.26 "Hg15 mi
10:00 AM46 °FCloudy.8 mph87%30.28 "Hg15 mi
9:00 AM45 °FCloudy.8 mph93%30.29 "Hg15 mi
8:00 AM45 °FLight rain. Cloudy.8 mph93%30.30 "Hg15 mi
7:00 AM45 °FLight rain. Mostly cloudy.7 mph87%30.31 "Hg12 mi
6:00 AM45 °FMostly cloudy.12 mph87%30.32 "Hg15 mi
5:00 AM43 °FMostly cloudy.12 mph93%30.32 "Hg15 mi
4:00 AM41 °FOvercast.8 mph93%30.34 "Hg15 mi
3:00 AM43 °FOvercast.7 mph87%30.36 "Hg15 mi
2:00 AM41 °FOvercast.7 mph93%30.34 "Hg15 mi
1:00 AM39 °FPassing clouds.6 mph93%30.34 "Hg20 mi
12:00 AM39 °FPassing clouds.9 mph93%30.33 "Hg20 mi
11:00 PM
Nov 23
41 °FPassing clouds.3 mph93%30.31 "Hg20 mi
10:00 PM41 °FPassing clouds.3 mph93%30.27 "Hg20 mi
9:00 PM43 °FClear.8 mph93%30.25 "Hg20 mi
8:00 PM41 °FClear.6 mph93%30.23 "Hg20 mi
7:00 PM45 °FClear.7 mph87%30.22 "Hg20 mi
6:00 PM45 °FPassing clouds.14 mph87%30.19 "Hg20 mi
Weather by CustomWeather, © 2014

See weather overviewHow to use our weather pages